,,Stat6,,Stat2,,Stat8,,Stat9,,Stat10,,Wind1,,Wind1,
time,status,PA1M_AVG,status,PR1M_SUM,status,RH1M_AVG,status,SR1M_AVG,status,TA1M_AVG,status,W1dAve1m,status,W1sAve1m,
2003-10-10, 00:00:01,VALID,918.815,VALID,0,VALID,99.4191,VALID,0.101885,VALID,20.4473,VALID,15,VALID,0,
2003-10-10, 00:01:00,VALID,918.807,VALID,0,VALID,99.4331,VALID,0.118866,VALID,20.4398,VALID,15,VALID,0.000545058,
2003-10-10, 00:02:00,VALID,918.801,VALID,0,VALID,99.4293,VALID,0.101885,VALID,20.4433,VALID,18,VALID,0.236737,
2003-10-10, 00:03:00,VALID,918.798,VALID,0,VALID,99.3543,VALID,0.0679233,VALID,20.4312,VALID,24,VALID,0.0933494,
2003-10-10, 00:04:00,VALID,918.792,VALID,0.2,VALID,99.3085,VALID,0.0169808,VALID,20.4066,VALID,24,VALID,0.0375,
2003-10-10, 00:05:00,VALID,918.789,VALID,0,VALID,99.4115,VALID,0,VALID,20.4128,VALID,24,VALID,0.00664063,
2003-10-10, 00:06:00,VALID,918.776,VALID,0,VALID,99.3988,VALID,0,VALID,20.4096,VALID,24,VALID,0.0267857,
2003-10-10, 00:07:00,VALID,918.783,VALID,0,VALID,99.3797,VALID,0,VALID,20.3934,VALID,24,VALID,0.00213068,
2003-10-10, 00:08:00,VALID,918.773,VALID,0,VALID,99.3988,VALID,0,VALID,20.3805,VALID,24,VALID,0,
2003-10-10, 00:09:00,VALID,918.757,VALID,0,VALID,99.4598,VALID,-0.0169808,VALID,20.3969,VALID,24,VALID,0.0262153,
2003-10-10, 00:10:00,VALID,918.751,VALID,0,VALID,99.4878,VALID,0,VALID,20.3999,VALID,24,VALID,0.367369,
2003-10-10, 00:11:00,VALID,918.738,VALID,0,VALID,99.4776,VALID,0.0169808,VALID,20.4093,VALID,24,VALID,0.248611,
2003-10-10, 00:12:00,VALID,918.727,VALID,0,VALID,99.4764,VALID,0.0169808,VALID,20.3924,VALID,24,VALID,0.0847222,
2003-10-10, 00:13:01,VALID,918.703,VALID,0,VALID,99.4179,VALID,0,VALID,20.3905,VALID,24,VALID,0.166903,
2003-10-10, 00:14:00,VALID,918.696,VALID,0,VALID,99.409,VALID,-0.0169808,VALID,20.3743,VALID,24,VALID,0.00181686,
2003-10-10, 00:15:00,VALID,918.678,VALID,0,VALID,99.3899,VALID,-0.0169808,VALID,20.381,VALID,24,VALID,0,
2003-10-10, 00:16:00,VALID,918.668,VALID,0,VALID,99.3721,VALID,0,VALID,20.3666,VALID,24,VALID,0,
2003-10-10, 00:17:00,VALID,918.661,VALID,0,VALID,99.3912,VALID,0.0169808,VALID,20.3703,VALID,24,VALID,0,
2003-10-10, 00:18:00,VALID,918.659,VALID,0,VALID,99.3759,VALID,0,VALID,20.387,VALID,24,VALID,0.188953,
2003-10-10, 00:19:01,VALID,918.663,VALID,0,VALID,99.3365,VALID,0.0339617,VALID,20.3671,VALID,24,VALID,0.138338,
2003-10-10, 00:20:01,VALID,918.656,VALID,0,VALID,99.2958,VALID,0.0169808,VALID,20.3517,VALID,24,VALID,0,
2003-10-10, 00:21:01,VALID,918.654,VALID,0,VALID,99.2564,VALID,0,VALID,20.338,VALID,24,VALID,0,
2003-10-10, 00:22:00,VALID,918.661,VALID,0,VALID,99.2475,VALID,0,VALID,20.342,VALID,24,VALID,0,
2003-10-10, 00:23:00,VALID,918.667,VALID,0,VALID,99.2869,VALID,0.0169808,VALID,20.352,VALID,24,VALID,0,
2003-10-10, 00:24:00,VALID,918.655,VALID,0,VALID,99.311,VALID,0.0169808,VALID,20.3552,VALID,24,VALID,0.00817587,
2003-10-10, 00:25:00,VALID,918.662,VALID,0,VALID,99.2945,VALID,0,VALID,20.3517,VALID,24,VALID,0.00661058,
2003-10-10, 00:26:01,VALID,918.656,VALID,0,VALID,99.2996,VALID,-0.0169808,VALID,20.3517,VALID,35,VALID,0.0690104,
2003-10-10, 00:27:00,VALID,918.641,VALID,0,VALID,99.2411,VALID,0,VALID,20.335,VALID,45,VALID,0.177871,
2003-10-10, 00:28:00,VALID,918.631,VALID,0,VALID,99.2017,VALID,0.0169808,VALID,20.3283,VALID,45,VALID,0.0293899,
2003-10-10, 00:29:00,VALID,918.637,VALID,0,VALID,99.1648,VALID,0.0169808,VALID,20.2998,VALID,45,VALID,0.197545,
2003-10-10, 00:30:00,VALID,918.63,VALID,0,VALID,99.1127,VALID,0,VALID,20.2806,VALID,45,VALID,0.198047,
2003-10-10, 00:31:01,VALID,918.642,VALID,0,VALID,99.0529,VALID,0.0169808,VALID,20.2642,VALID,45,VALID,0.157885,
2003-10-10, 00:32:00,VALID,918.621,VALID,0,VALID,99.0593,VALID,0,VALID,20.2483,VALID,45,VALID,0.0294331,
2003-10-10, 00:33:00,VALID,918.619,VALID,0,VALID,99.1012,VALID,-0.0169808,VALID,20.2289,VALID,53,VALID,0.283727,
2003-10-10, 00:34:00,VALID,918.604,VALID,0,VALID,99.1228,VALID,-0.0679233,VALID,20.2359,VALID,82,VALID,0.399554,
2003-10-10, 00:35:00,VALID,918.591,VALID,0,VALID,99.1216,VALID,-0.0339617,VALID,20.2155,VALID,106,VALID,0.405469,
2003-10-10, 00:36:00,VALID,918.562,VALID,0,VALID,99.1178,VALID,-0.0339617,VALID,20.2203,VALID,106,VALID,0.301711,
2003-10-10, 00:37:00,VALID,918.542,VALID,0,VALID,99.1254,VALID,-0.0849042,VALID,20.1969,VALID,106,VALID,0.0862926,
2003-10-10, 00:38:00,VALID,918.538,VALID,0,VALID,99.1674,VALID,-0.0339617,VALID,20.2071,VALID,106,VALID,0,
2003-10-10, 00:39:00,VALID,918.515,VALID,0,VALID,99.1813,VALID,-0.0509425,VALID,20.2074,VALID,106,VALID,0,
2003-10-10, 00:40:01,VALID,918.501,VALID,0,VALID,99.2017,VALID,-0.0679233,VALID,20.2006,VALID,106,VALID,0,
2003-10-10, 00:41:01,VALID,918.481,VALID,0,VALID,99.2195,VALID,-0.0849042,VALID,20.1939,VALID,106,VALID,0,
2003-10-10, 00:42:00,VALID,918.479,VALID,0,VALID,99.2475,VALID,-0.0339617,VALID,20.2009,VALID,106,VALID,0,
2003-10-10, 00:43:00,VALID,918.473,VALID,0,VALID,99.3072,VALID,-0.0679233,VALID,20.2076,VALID,106,VALID,0,
2003-10-10, 00:44:01,VALID,918.464,VALID,0,VALID,99.3377,VALID,-0.101885,VALID,20.2235,VALID,106,VALID,0,
2003-10-10, 00:45:00,VALID,918.459,VALID,0,VALID,99.3021,VALID,-0.0679233,VALID,20.2108,VALID,106,VALID,0.0259811,
2003-10-10, 00:46:00,VALID,918.457,VALID,0,VALID,99.1419,VALID,-0.0679233,VALID,20.1748,VALID,106,VALID,0.297049,
2003-10-10, 00:47:00,VALID,918.434,VALID,0,VALID,99.1178,VALID,-0.101885,VALID,20.1654,VALID,106,VALID,0.0458097,
2003-10-10, 00:48:00,VALID,918.414,VALID,0,VALID,99.1,VALID,-0.0849042,VALID,20.1686,VALID,106,VALID,0,
2003-10-10, 00:49:00,VALID,918.401,VALID,0,VALID,99.03,VALID,-0.0509425,VALID,20.1589,VALID,106,VALID,0,
2003-10-10, 00:50:00,VALID,918.397,VALID,0,VALID,98.983,VALID,-0.0509425,VALID,20.1395,VALID,106,VALID,0,
2003-10-10, 00:51:00,VALID,918.39,VALID,0,VALID,98.9741,VALID,-0.0169808,VALID,20.1293,VALID,106,VALID,0,
2003-10-10, 00:52:00,VALID,918.394,VALID,0,VALID,98.9703,VALID,-0.0339617,VALID,20.1427,VALID,106,VALID,0,
2003-10-10, 00:53:00,VALID,918.375,VALID,0,VALID,98.9664,VALID,-0.0679233,VALID,20.1258,VALID,106,VALID,0,
2003-10-10, 00:54:01,VALID,918.373,VALID,0,VALID,98.9906,VALID,-0.0339617,VALID,20.1296,VALID,106,VALID,0,
2003-10-10, 00:55:00,VALID,918.363,VALID,0,VALID,99.0211,VALID,-0.0679233,VALID,20.1363,VALID,106,VALID,0,
2003-10-10, 00:56:00,VALID,918.375,VALID,0,VALID,99.0669,VALID,-0.0849042,VALID,20.1266,VALID,106,VALID,0,
2003-10-10, 00:57:01,VALID,918.361,VALID,0,VALID,99.0593,VALID,-0.0849042,VALID,20.1201,VALID,106,VALID,0,
2003-10-10, 00:58:00,VALID,918.372,VALID,0,VALID,99.0402,VALID,-0.0509425,VALID,20.1234,VALID,106,VALID,0,
2003-10-10, 00:59:00,VALID,918.365,VALID,0,VALID,99.0122,VALID,-0.0679233,VALID,20.098,VALID,106,VALID,0,
2003-10-10, 01:00:00,VALID,918.351,VALID,0,VALID,98.9855,VALID,-0.0509425,VALID,20.0814,VALID,106,VALID,0,
2003-10-10, 01:01:00,VALID,918.35,VALID,0,VALID,98.9575,VALID,-0.0339617,VALID,20.0595,VALID,106,VALID,0,
2003-10-10, 01:02:01,VALID,918.331,VALID,0,VALID,98.9461,VALID,-0.0679233,VALID,20.0165,VALID,106,VALID,0.0052689,
2003-10-10, 01:03:00,VALID,918.306,VALID,0,VALID,98.9995,VALID,-0.0679233,VALID,19.9942,VALID,106,VALID,0.339026,
2003-10-10, 01:04:01,VALID,918.301,VALID,0,VALID,99.1152,VALID,-0.0679233,VALID,19.9812,VALID,106,VALID,0.408249,
2003-10-10, 01:05:01,VALID,918.286,VALID,0,VALID,99.1686,VALID,-0.0679233,VALID,19.9815,VALID,106,VALID,0.453683,
2003-10-10, 01:06:00,VALID,918.259,VALID,0,VALID,99.1852,VALID,-0.0679233,VALID,19.9686,VALID,106,VALID,0.474516,
2003-10-10, 01:07:00,VALID,918.245,VALID,0,VALID,99.2246,VALID,-0.0509425,VALID,19.946,VALID,95,VALID,0.514898,
2003-10-10, 01:08:01,VALID,918.24,VALID,0,VALID,99.2653,VALID,-0.118866,VALID,19.9499,VALID,86,VALID,0.549162,
2003-10-10, 01:09:00,VALID,918.21,VALID,0,VALID,99.2411,VALID,-0.0849042,VALID,19.9298,VALID,86,VALID,0.560352,
2003-10-10, 01:10:01,VALID,918.196,VALID,0,VALID,99.2525,VALID,-0.0849042,VALID,19.904,VALID,85,VALID,0.594703,
2003-10-10, 01:11:00,VALID,918.187,VALID,0,VALID,99.2678,VALID,-0.0509425,VALID,19.8846,VALID,85,VALID,0.657522,
2003-10-10, 01:12:01,VALID,918.17,VALID,0,VALID,99.3517,VALID,-0.0679233,VALID,19.8851,VALID,85,VALID,0.678943,
2003-10-10, 01:13:00,VALID,918.166,VALID,0,VALID,99.4051,VALID,-0.0679233,VALID,19.8746,VALID,85,VALID,0.699041,
2003-10-10, 01:14:01,VALID,918.164,VALID,0,VALID,99.4331,VALID,-0.0849042,VALID,19.8647,VALID,85,VALID,0.710547,
2003-10-10, 01:15:01,VALID,918.156,VALID,0,VALID,99.4751,VALID,-0.0509425,VALID,19.8587,VALID,85,VALID,0.68378,
2003-10-10, 01:16:00,VALID,918.163,VALID,0,VALID,99.5527,VALID,-0.0679233,VALID,19.8592,VALID,88,VALID,0.710565,
2003-10-10, 01:17:01,VALID,918.142,VALID,0,VALID,99.6353,VALID,-0.0509425,VALID,19.8652,VALID,92,VALID,0.854288,
2003-10-10, 01:18:01,VALID,918.148,VALID,0,VALID,99.6696,VALID,-0.0849042,VALID,19.8719,VALID,95,VALID,0.75362,
2003-10-10, 01:19:01,VALID,918.146,VALID,0,VALID,99.6951,VALID,-0.101885,VALID,19.8784,VALID,103,VALID,0.680859,
2003-10-10, 01:20:01,VALID,918.128,VALID,0,VALID,99.6671,VALID,-0.0849042,VALID,19.8786,VALID,103,VALID,0.587984,
2003-10-10, 01:21:00,VALID,918.136,VALID,0,VALID,99.6773,VALID,-0.0849042,VALID,19.8587,VALID,105,VALID,0.56284,
2003-10-10, 01:22:01,VALID,918.115,VALID,0,VALID,99.751,VALID,-0.0849042,VALID,19.8689,VALID,134,VALID,0.618304,
2003-10-10, 01:23:00,VALID,918.115,VALID,0,VALID,99.765,VALID,-0.0849042,VALID,19.8722,VALID,143,VALID,0.733378,
2003-10-10, 01:24:00,VALID,918.083,VALID,0,VALID,99.7892,VALID,-0.0849042,VALID,19.8655,VALID,152,VALID,0.763445,
2003-10-10, 01:25:01,VALID,918.073,VALID,0,VALID,99.8324,VALID,-0.0679233,VALID,19.8717,VALID,146,VALID,0.590278,
2003-10-10, 01:26:00,VALID,918.052,VALID,0,VALID,99.8451,VALID,-0.0679233,VALID,19.8751,VALID,147,VALID,0.323438,
2003-10-10, 01:27:00,VALID,918.037,VALID,0,VALID,99.8744,VALID,-0.0849042,VALID,19.8881,VALID,148,VALID,0.515625,
2003-10-10, 01:28:00,VALID,918.019,VALID,0,VALID,99.8845,VALID,-0.0679233,VALID,19.8846,VALID,151,VALID,0.539253,
2003-10-10, 01:29:01,VALID,918.02,VALID,0,VALID,99.8934,VALID,-0.0849042,VALID,19.891,VALID,151,VALID,0.250558,
2003-10-10, 01:30:01,VALID,917.999,VALID,0,VALID,99.8807,VALID,-0.0849042,VALID,19.895,VALID,142,VALID,0.832304,
2003-10-10, 01:31:00,VALID,917.998,VALID,0,VALID,99.7218,VALID,-0.0679233,VALID,19.8426,VALID,154,VALID,0.948847,
2003-10-10, 01:32:00,VALID,917.984,VALID,0,VALID,99.4662,VALID,-0.101885,VALID,19.8627,VALID,164,VALID,0.659412,
2003-10-10, 01:33:01,VALID,917.987,VALID,0,VALID,99.2665,VALID,-0.0679233,VALID,19.9047,VALID,157,VALID,0.303843,
2003-10-10, 01:34:01,VALID,917.97,VALID,0,VALID,99.1839,VALID,-0.0509425,VALID,19.9462,VALID,155,VALID,0.59484,
2003-10-10, 01:35:01,VALID,917.965,VALID,0,VALID,99.1381,VALID,-0.0679233,VALID,19.9753,VALID,138,VALID,0.822266,
2003-10-10, 01:36:01,VALID,917.954,VALID,0,VALID,99.1127,VALID,-0.0679233,VALID,19.9944,VALID,142,VALID,0.623476,
2003-10-10, 01:37:01,VALID,917.95,VALID,0,VALID,99.0809,VALID,-0.0339617,VALID,19.9879,VALID,143,VALID,0.600446,
2003-10-10, 01:38:01,VALID,917.95,VALID,0,VALID,99.1228,VALID,-0.0339617,VALID,19.9954,VALID,147,VALID,0.784489,
2003-10-10, 01:39:01,VALID,917.922,VALID,0,VALID,99.161,VALID,-0.0169808,VALID,19.9487,VALID,142,VALID,0.787157,
2003-10-10, 01:40:00,VALID,917.905,VALID,0,VALID,99.2665,VALID,-0.0339617,VALID,19.9497,VALID,146,VALID,0.669271,
2003-10-10, 01:41:00,VALID,917.897,VALID,0,VALID,99.3288,VALID,-0.0679233,VALID,19.9233,VALID,146,VALID,0.392805,
2003-10-10, 01:42:01,VALID,917.879,VALID,0,VALID,99.4064,VALID,-0.0339617,VALID,19.9236,VALID,146,VALID,0.213034,
2003-10-10, 01:43:01,VALID,917.877,VALID,0,VALID,99.4395,VALID,-0.0509425,VALID,19.8973,VALID,146,VALID,0.258557,
2003-10-10, 01:44:01,VALID,917.875,VALID,0,VALID,99.4573,VALID,-0.0169808,VALID,19.8846,VALID,149,VALID,0.22904,
2003-10-10, 01:45:01,VALID,917.875,VALID,0,VALID,99.456,VALID,-0.0509425,VALID,19.8851,VALID,149,VALID,0.288175,
2003-10-10, 01:46:01,VALID,917.892,VALID,0,VALID,99.4776,VALID,-0.0339617,VALID,19.8751,VALID,168,VALID,0.7141,
2003-10-10, 01:47:01,VALID,917.889,VALID,0,VALID,99.5234,VALID,-0.0509425,VALID,19.8722,VALID,168,VALID,0.375908,
2003-10-10, 01:48:01,VALID,917.885,VALID,0,VALID,99.5323,VALID,-0.0679233,VALID,19.8558,VALID,168,VALID,0.245908,
2003-10-10, 01:49:00,VALID,917.883,VALID,0,VALID,99.5679,VALID,-0.0339617,VALID,19.8525,VALID,168,VALID,0.0759448,
2003-10-10, 01:50:01,VALID,917.885,VALID,0,VALID,99.6035,VALID,-0.0679233,VALID,19.8496,VALID,168,VALID,0.043679,
2003-10-10, 01:51:01,VALID,917.884,VALID,0,VALID,99.6315,VALID,-0.0339617,VALID,19.8461,VALID,168,VALID,0.0284722,
2003-10-10, 01:52:01,VALID,917.875,VALID,0,VALID,99.6595,VALID,-0.0509425,VALID,19.8496,VALID,145,VALID,0.478087,
2003-10-10, 01:53:01,VALID,917.875,VALID,0,VALID,99.6963,VALID,-0.0509425,VALID,19.8264,VALID,136,VALID,0.478516,
2003-10-10, 01:54:01,VALID,917.868,VALID,0,VALID,99.7065,VALID,-0.0679233,VALID,19.8332,VALID,121,VALID,0.627232,
2003-10-10, 01:55:01,VALID,917.871,VALID,0,VALID,99.7485,VALID,-0.0339617,VALID,19.8202,VALID,117,VALID,0.530134,
2003-10-10, 01:56:01,VALID,917.863,VALID,0,VALID,99.7701,VALID,-0.0339617,VALID,19.8071,VALID,116,VALID,0.603161,
2003-10-10, 01:57:01,VALID,917.86,VALID,0,VALID,99.8273,VALID,0,VALID,19.8009,VALID,108,VALID,0.503472,
2003-10-10, 01:58:01,VALID,917.853,VALID,0,VALID,99.8438,VALID,0.0849042,VALID,19.8028,VALID,104,VALID,0.442769,
2003-10-10, 01:59:01,VALID,917.844,VALID,0,VALID,99.8642,VALID,0.0849042,VALID,19.7931,VALID,104,VALID,0.496354,
2003-10-10, 02:00:01,VALID,917.838,VALID,0,VALID,99.9036,VALID,0.0849042,VALID,19.783,VALID,105,VALID,0.616832,
2003-10-10, 02:01:01,VALID,917.818,VALID,0,VALID,99.9456,VALID,0.0509425,VALID,19.783,VALID,111,VALID,0.744665,
2003-10-10, 02:02:01,VALID,917.824,VALID,0,VALID,99.9835,VALID,0.0169808,VALID,19.7862,VALID,113,VALID,0.608526,
2003-10-10, 02:03:01,VALID,917.804,VALID,0,VALID,100,VALID,0,VALID,19.7996,VALID,116,VALID,0.6,
2003-10-10, 02:04:01,VALID,917.803,VALID,0,VALID,100,VALID,-0.0509425,VALID,19.8202,VALID,120,VALID,0.455382,
2003-10-10, 02:05:01,VALID,917.808,VALID,0,VALID,100,VALID,-0.0339617,VALID,19.8299,VALID,120,VALID,0.404916,
2003-10-10, 02:06:01,VALID,917.804,VALID,0,VALID,100,VALID,-0.0509425,VALID,19.8103,VALID,120,VALID,0.0864583,
2003-10-10, 02:07:01,VALID,917.803,VALID,0,VALID,100,VALID,-0.0679233,VALID,19.8168,VALID,120,VALID,0.223656,
2003-10-10, 02:08:01,VALID,917.785,VALID,0,VALID,100,VALID,-0.0169808,VALID,19.8299,VALID,120,VALID,0.252131,
2003-10-10, 02:09:01,VALID,917.795,VALID,0,VALID,100,VALID,-0.0169808,VALID,19.8205,VALID,120,VALID,0.181286,
2003-10-10, 02:10:01,VALID,917.796,VALID,0,VALID,100,VALID,-0.0509425,VALID,19.8076,VALID,120,VALID,0.160156,
2003-10-10, 02:11:01,VALID,917.803,VALID,0,VALID,100,VALID,-0.0339617,VALID,19.817,VALID,120,VALID,0.125521,
2003-10-10, 02:12:01,VALID,917.814,VALID,0,VALID,100,VALID,-0.0169808,VALID,19.8138,VALID,116,VALID,0.303052,
2003-10-10, 02:13:01,VALID,917.805,VALID,0,VALID,100,VALID,-0.0679233,VALID,19.8205,VALID,108,VALID,0.269336,
2003-10-10, 02:14:00,VALID,917.799,VALID,0,VALID,100,VALID,-0.0679233,VALID,19.8105,VALID,107,VALID,0.324673,
2003-10-10, 02:15:00,VALID,917.791,VALID,0,VALID,100,VALID,-0.0509425,VALID,19.7979,VALID,104,VALID,0.328697,
2003-10-10, 02:16:00,VALID,917.794,VALID,0,VALID,100,VALID,-0.0849042,VALID,19.782,VALID,104,VALID,0.223214,
2003-10-10, 02:17:00,VALID,917.793,VALID,0,VALID,100,VALID,-0.0509425,VALID,19.7919,VALID,104,VALID,0.194792,
2003-10-10, 02:18:00,VALID,917.785,VALID,0,VALID,100,VALID,-0.0339617,VALID,19.7817,VALID,103,VALID,0.385356,
2003-10-10, 02:19:00,VALID,917.79,VALID,0,VALID,100,VALID,0.0849042,VALID,19.7929,VALID,94,VALID,0.599254,
2003-10-10, 02:20:00,VALID,917.768,VALID,0,VALID,100,VALID,0.0679233,VALID,19.8187,VALID,86,VALID,0.580543,
2003-10-10, 02:21:00,VALID,917.758,VALID,0,VALID,100,VALID,0.0849042,VALID,19.8346,VALID,86,VALID,0.462028,
2003-10-10, 02:22:00,VALID,917.745,VALID,0,VALID,100,VALID,0.0849042,VALID,19.8312,VALID,86,VALID,0.44308,
2003-10-10, 02:23:00,VALID,917.727,VALID,0,VALID,100,VALID,0.101885,VALID,19.8341,VALID,86,VALID,0.495393,
2003-10-10, 02:24:00,VALID,917.703,VALID,0,VALID,100,VALID,0.0849042,VALID,19.8374,VALID,86,VALID,0.417225,
2003-10-10, 02:25:00,VALID,917.703,VALID,0,VALID,100,VALID,0.101885,VALID,19.8473,VALID,86,VALID,0.300681,
2003-10-10, 02:26:00,VALID,917.685,VALID,0,VALID,100,VALID,0.0849042,VALID,19.8672,VALID,86,VALID,0.289063,
2003-10-10, 02:27:00,VALID,917.681,VALID,0,VALID,100,VALID,0.0679233,VALID,19.8769,VALID,86,VALID,0.224848,
2003-10-10, 02:28:00,VALID,917.667,VALID,0,VALID,100,VALID,0.101885,VALID,19.8764,VALID,86,VALID,0.0964177,
2003-10-10, 02:29:00,VALID,917.675,VALID,0,VALID,100,VALID,0.101885,VALID,19.8764,VALID,86,VALID,0.0689787,
2003-10-10, 02:30:00,VALID,917.673,VALID,0,VALID,100,VALID,0.118866,VALID,19.8925,VALID,51,VALID,0.247692,
2003-10-10, 02:31:00,VALID,917.68,VALID,0,VALID,100,VALID,0.101885,VALID,19.9059,VALID,15,VALID,0.27907,
2003-10-10, 02:32:00,VALID,917.671,VALID,0,VALID,100,VALID,0.0849042,VALID,19.899,VALID,15,VALID,0.172447,
2003-10-10, 02:33:00,VALID,917.674,VALID,0,VALID,100,VALID,0.0339617,VALID,19.9025,VALID,15,VALID,0.270167,
2003-10-10, 02:34:00,VALID,917.665,VALID,0,VALID,100,VALID,0,VALID,19.904,VALID,15,VALID,0.3663,
2003-10-10, 02:35:00,VALID,917.651,VALID,0,VALID,100,VALID,-0.0169808,VALID,19.891,VALID,15,VALID,0.232329,
2003-10-10, 02:36:00,VALID,917.643,VALID,0,VALID,100,VALID,-0.0339617,VALID,19.8938,VALID,15,VALID,0.16353,
2003-10-10, 02:37:00,VALID,917.623,VALID,0,VALID,100,VALID,0,VALID,19.8975,VALID,15,VALID,0.047061,
2003-10-10, 02:38:00,VALID,917.627,VALID,0,VALID,100,VALID,-0.0339617,VALID,19.8978,VALID,341,VALID,0.388822,
2003-10-10, 02:39:00,VALID,917.634,VALID,0,VALID,100,VALID,-0.0169808,VALID,19.865,VALID,307,VALID,0.129261,
2003-10-10, 02:40:00,VALID,917.624,VALID,0,VALID,100,VALID,-0.0169808,VALID,19.8622,VALID,307,VALID,0,
2003-10-10, 02:41:00,VALID,917.622,VALID,0,VALID,100,VALID,-0.0339617,VALID,19.8491,VALID,307,VALID,0,
2003-10-10, 02:42:00,VALID,917.627,VALID,0,VALID,100,VALID,-0.0169808,VALID,19.8587,VALID,307,VALID,0,
2003-10-10, 02:43:00,VALID,917.611,VALID,0,VALID,100,VALID,-0.0339617,VALID,19.8714,VALID,307,VALID,0,
2003-10-10, 02:44:00,VALID,917.611,VALID,0,VALID,100,VALID,-0.0339617,VALID,19.8883,VALID,307,VALID,0,
2003-10-10, 02:45:00,VALID,917.607,VALID,0,VALID,100,VALID,0,VALID,19.894,VALID,307,VALID,0,
2003-10-10, 02:46:00,VALID,917.598,VALID,0,VALID,100,VALID,0,VALID,19.8935,VALID,307,VALID,0.130774,
2003-10-10, 02:47:00,VALID,917.597,VALID,0,VALID,100,VALID,0.0169808,VALID,19.9134,VALID,307,VALID,0.0729802,
2003-10-10, 02:48:00,VALID,917.594,VALID,0,VALID,100,VALID,-0.0339617,VALID,19.9129,VALID,307,VALID,0.015625,
2003-10-10, 02:49:00,VALID,917.594,VALID,0,VALID,100,VALID,-0.118866,VALID,19.9144,VALID,307,VALID,0.102289,
2003-10-10, 02:50:00,VALID,917.575,VALID,0,VALID,100,VALID,-0.118866,VALID,19.9442,VALID,307,VALID,0.00892857,
2003-10-10, 02:51:00,VALID,917.566,VALID,0,VALID,100,VALID,-0.118866,VALID,19.9271,VALID,307,VALID,0,
2003-10-10, 02:52:00,VALID,917.551,VALID,0,VALID,100,VALID,-0.101885,VALID,19.9243,VALID,307,VALID,0,
2003-10-10, 02:53:00,VALID,917.537,VALID,0,VALID,100,VALID,-0.118866,VALID,19.9238,VALID,307,VALID,0,
2003-10-10, 02:54:00,VALID,917.509,VALID,0,VALID,100,VALID,-0.118866,VALID,19.934,VALID,307,VALID,0,
2003-10-10, 02:55:00,VALID,917.5,VALID,0,VALID,100,VALID,-0.118866,VALID,19.9437,VALID,307,VALID,0.0065407,
2003-10-10, 02:56:00,VALID,917.497,VALID,0,VALID,100,VALID,-0.101885,VALID,19.9666,VALID,307,VALID,0,
2003-10-10, 02:57:00,VALID,917.474,VALID,0,VALID,100,VALID,-0.101885,VALID,19.9793,VALID,307,VALID,0,
2003-10-10, 02:58:00,VALID,917.467,VALID,0,VALID,100,VALID,-0.101885,VALID,20.0054,VALID,307,VALID,0,
2003-10-10, 02:59:00,VALID,917.46,VALID,0,VALID,100,VALID,-0.101885,VALID,20.0118,VALID,339,VALID,0.395647,
2003-10-10, 03:00:00,VALID,917.456,VALID,0,VALID,100,VALID,-0.0849042,VALID,20.0116,VALID,341,VALID,0.446766,
2003-10-10, 03:01:00,VALID,917.468,VALID,0,VALID,100,VALID,-0.152827,VALID,20.0121,VALID,345,VALID,0.452237,
2003-10-10, 03:02:00,VALID,917.456,VALID,0,VALID,100,VALID,-0.101885,VALID,20.0054,VALID,346,VALID,0.317827,
2003-10-10, 03:03:00,VALID,917.457,VALID,0,VALID,100,VALID,-0.118866,VALID,20.0252,VALID,352,VALID,0.340116,
2003-10-10, 03:04:00,VALID,917.463,VALID,0,VALID,100,VALID,-0.0339617,VALID,20.0133,VALID,5,VALID,0.476381,
2003-10-10, 03:05:00,VALID,917.457,VALID,0,VALID,100,VALID,0.0169808,VALID,20.0163,VALID,27,VALID,0.454514,
2003-10-10, 03:06:00,VALID,917.453,VALID,0,VALID,100,VALID,0,VALID,20.023,VALID,27,VALID,0.4373,
2003-10-10, 03:07:00,VALID,917.457,VALID,0,VALID,100,VALID,0,VALID,20.0197,VALID,27,VALID,0.295201,
2003-10-10, 03:08:00,VALID,917.458,VALID,0,VALID,100,VALID,0,VALID,20.0128,VALID,27,VALID,0.219939,
2003-10-10, 03:09:00,VALID,917.443,VALID,0,VALID,100,VALID,0,VALID,20.0294,VALID,27,VALID,0.345117,
2003-10-10, 03:10:00,VALID,917.445,VALID,0,VALID,100,VALID,0,VALID,20.026,VALID,27,VALID,0.177024,
2003-10-10, 03:11:00,VALID,917.446,VALID,0,VALID,100,VALID,0,VALID,20.0359,VALID,27,VALID,0,
2003-10-10, 03:12:00,VALID,917.432,VALID,0,VALID,100,VALID,0,VALID,20.0451,VALID,27,VALID,0,
2003-10-10, 03:13:00,VALID,917.442,VALID,0,VALID,100,VALID,0.0169808,VALID,20.0555,VALID,27,VALID,0,
2003-10-10, 03:14:00,VALID,917.428,VALID,0,VALID,100,VALID,0,VALID,20.0419,VALID,27,VALID,0.00999273,
2003-10-10, 03:15:00,VALID,917.411,VALID,0,VALID,100,VALID,0,VALID,20.0225,VALID,27,VALID,0.339658,
2003-10-10, 03:16:00,VALID,917.407,VALID,0,VALID,100,VALID,-0.0169808,VALID,20.0098,VALID,27,VALID,0.287574,
2003-10-10, 03:17:00,VALID,917.398,VALID,0,VALID,100,VALID,-0.0169808,VALID,20.019,VALID,27,VALID,0.252486,
2003-10-10, 03:18:00,VALID,917.377,VALID,0,VALID,100,VALID,-0.0169808,VALID,20.0389,VALID,27,VALID,0.417515,
2003-10-10, 03:19:00,VALID,917.361,VALID,0,VALID,100,VALID,-0.0679233,VALID,20.0337,VALID,27,VALID,0.48274,
2003-10-10, 03:20:00,VALID,917.349,VALID,0,VALID,100,VALID,-0.101885,VALID,19.9917,VALID,21,VALID,0.546317,
2003-10-10, 03:21:00,VALID,917.335,VALID,0,VALID,100,VALID,-0.101885,VALID,19.9591,VALID,20,VALID,0.464666,
2003-10-10, 03:22:00,VALID,917.333,VALID,0,VALID,100,VALID,-0.101885,VALID,19.9562,VALID,14,VALID,0.455929,
2003-10-10, 03:23:00,VALID,917.309,VALID,0,VALID,100,VALID,-0.0849042,VALID,19.9499,VALID,14,VALID,0.307173,
2003-10-10, 03:24:00,VALID,917.291,VALID,0,VALID,100,VALID,-0.0849042,VALID,19.9368,VALID,14,VALID,0.296165,
2003-10-10, 03:25:00,VALID,917.28,VALID,0,VALID,100,VALID,-0.0679233,VALID,19.9365,VALID,9,VALID,0.471726,
2003-10-10, 03:26:00,VALID,917.272,VALID,0,VALID,100,VALID,-0.0679233,VALID,19.9465,VALID,9,VALID,0.394431,
2003-10-10, 03:27:00,VALID,917.266,VALID,0,VALID,100,VALID,-0.0849042,VALID,19.9564,VALID,14,VALID,0.548147,
2003-10-10, 03:28:00,VALID,917.245,VALID,0,VALID,100,VALID,-0.0849042,VALID,19.9467,VALID,359,VALID,0.232422,
2003-10-10, 03:29:00,VALID,917.234,VALID,0,VALID,100,VALID,-0.0849042,VALID,19.9204,VALID,4,VALID,0.438045,
2003-10-10, 03:30:00,VALID,917.204,VALID,0,VALID,100,VALID,-0.0679233,VALID,19.9238,VALID,6,VALID,0.396577,
2003-10-10, 03:31:00,VALID,917.203,VALID,0,VALID,100,VALID,-0.0849042,VALID,19.9077,VALID,6,VALID,0.36109,
2003-10-10, 03:32:00,VALID,917.21,VALID,0,VALID,100,VALID,-0.0339617,VALID,19.891,VALID,6,VALID,0.0666667,
2003-10-10, 03:33:00,VALID,917.213,VALID,0,VALID,100,VALID,-0.0509425,VALID,19.898,VALID,6,VALID,0,
2003-10-10, 03:34:00,VALID,917.21,VALID,0,VALID,100,VALID,-0.101885,VALID,19.891,VALID,6,VALID,0,
2003-10-10, 03:35:00,VALID,917.219,VALID,0,VALID,100,VALID,-0.101885,VALID,19.8978,VALID,6,VALID,0,
2003-10-10, 03:36:00,VALID,917.215,VALID,0,VALID,100,VALID,-0.0339617,VALID,19.9137,VALID,6,VALID,0,
2003-10-10, 03:37:00,VALID,917.217,VALID,0,VALID,100,VALID,-0.101885,VALID,19.9169,VALID,6,VALID,0,
2003-10-10, 03:38:00,VALID,917.239,VALID,0,VALID,100,VALID,-0.0849042,VALID,19.9335,VALID,6,VALID,0,
2003-10-10, 03:39:00,VALID,917.228,VALID,0,VALID,100,VALID,-0.0849042,VALID,19.9363,VALID,6,VALID,0,